FW6692 Weather Reports


time (UTC)temp
F
wind
direction
speed
knots
gust
knots
rain 1hr
in
rain 24hr
in
rain mn
in
humidity
%
barometer
mb
20260506221552 60 345 5.2 10.4 0.00 0.01 0.01 85 1016.7
20260506220051 60 325 7.8 13.0 0.00 0.01 0.01 85 1016.8
20260506214555 59 23 7.0 11.3 0.00 0.01 0.01 85 1016.9
20260506213111 59 35 5.2 12.2 0.00 0.01 0.01 86 1017.0
20260506211552 58 339 7.0 13.0 0.00 0.01 0.01 87 1017.5
20260506210055 58 337 7.0 12.2 0.00 0.01 0.01 88 1017.3
20260506204553 57 355 7.0 12.2 0.00 0.01 0.01 88 1017.3
20260506203047 58 17 6.1 11.3 0.00 0.01 0.01 88 1017.5
20260506201553 58 336 7.8 13.0 0.00 0.01 0.01 89 1017.6
20260506200052 57 309 6.1 13.0 0.00 0.01 0.01 89 1017.3
20260506194555 57 338 7.0 12.2 0.00 0.01 0.01 89 1017.7
20260506193100 57 321 7.0 14.8 0.00 0.01 0.01 89 1017.8
20260506191551 57 5 7.8 12.2 0.00 0.01 0.01 89 1017.6
20260506190051 57 360 7.0 12.2 0.00 0.01 0.01 90 1017.9
20260506184549 56 325 6.1 12.2 0.00 0.01 0.01 90 1018.0
20260506183048 57 350 8.7 14.8 0.00 0.01 0.01 89 1017.9
20260506181549 56 5 8.7 13.0 0.00 0.01 0.01 91 1017.9
20260506180059 55 346 6.1 13.9 0.00 0.01 0.01 91 1017.9
20260506174550 55 11 8.7 14.8 0.00 0.01 0.01 90 1017.7
20260506173056 56 348 8.7 15.6 0.00 0.01 0.01 90 1017.6
20260506171550 56 339 7.8 16.5 0.00 0.01 0.01 91 1017.6
20260506170103 57 336 9.6 14.8 0.00 0.01 0.01 91 1017.5
20260506164556 56 5 7.0 11.3 0.00 0.01 0.01 93 1017.3
20260506163109 56 355 5.2 9.6 0.00 0.01 0.01 93 1017.4
20260506161548 55 13 5.2 9.6 0.00 0.01 0.01 94 1017.0
20260506160051 55 146 12.2 23.5 0.00 0.01 0.01 95 1016.5
20260506154608 54 108 10.4 20.0 0.01 0.01 0.01 95 1016.1
20260506153059 53 98 3.5 12.2 0.01 0.01 0.01 94 1016.7
20260506151557 53 323 5.2 10.4 0.01 0.01 0.01 95 1018.3
20260506150047 54 360 7.8 12.2 0.00 0.00 0.00 94 1017.7
20260506144549 55 19 7.8 15.6 0.00 0.00 0.00 94 1017.8
20260506143059 55 348 8.7 13.0 0.00 0.00 0.00 94 1017.5
20260506141550 57 360 10.4 17.4 0.00 0.00 0.00 91 1017.3
20260506140054 58 334 7.0 13.9 0.00 0.00 0.00 89 1017.1
20260506134553 59 321 7.8 14.8 0.00 0.00 0.00 89 1016.6
20260506133050 59 13 8.7 14.8 0.00 0.00 0.00 88 1015.3
20260506131554 60 26 5.2 15.6 0.00 0.00 0.00 88 1015.0
20260506130051 60 18 9.6 16.5 0.00 0.00 0.00 87 1015.0
20260506124549 61 5 7.8 16.5 0.00 0.00 0.00 86 1014.6
20260506123049 61 360 7.8 12.2 0.00 0.00 0.00 86 1014.2
20260506121547 62 5 7.0 10.4 0.00 0.00 0.00 85 1014.2
20260506120057 62 28 7.8 12.2 0.00 0.00 0.00 86 1013.9
20260506114558 63 5 6.1 10.4 0.00 0.00 0.00 85 1013.7
20260506113053 64 355 2.6 8.7 0.00 0.00 0.00 86 1014.0
20260506111548 64 42 3.5 9.6 0.00 0.00 0.00 86 1013.8
20260506110055 65 24 4.3 8.7 0.00 0.00 0.00 86 1013.8
20260506104550 65 12 6.1 13.0 0.00 0.00 0.00 86 1013.6
20260506103049 66 13 5.2 9.6 0.00 0.00 0.00 86 1013.3
20260506101551 67 22 3.5 7.8 0.00 0.00 0.00 88 1013.4
20260506100048 67 34 4.3 8.7 0.00 0.00 0.00 90 1013.4
20260506094610 68 15 5.2 9.6 0.00 0.00 0.00 90 1013.0
20260506093056 70 38 4.3 7.8 0.00 0.00 0.00 93 1012.7
20260506091556 72 62 2.6 4.3 0.00 0.00 0.00 92 1012.6
20260506090051 73 126 0.9 2.6 0.00 0.00 0.00 94 1012.8
20260506084554 73 126 1.7 3.5 0.00 0.00 0.00 94 1012.5
20260506083102 74 126 3.5 7.0 0.00 0.00 0.00 94 1012.4
20260506081551 74 132 3.5 5.2 0.00 0.00 0.00 94 1012.3
20260506073053 74 150 1.7 5.2 0.00 0.00 0.00 93 1012.6
20260506071549 74 199 0.9 2.6 0.00 0.00 0.00 92 1012.8
20260506061552 74 59 2.6 5.2 0.00 0.00 0.00 92 1012.5
20260506044550 74 173 1.7 7.8 0.00 0.00 0.00 90 1011.7
20260506043042 74 179 4.3 8.7 0.00 0.00 0.00 90 1011.6
20260506041550 74 156 4.3 8.7 0.00 0.00 0.00 90 1011.6
20260506040059 73 146 3.5 6.1 0.00 0.00 0.00 90 1011.7
20260506034558 73 148 3.5 5.2 0.00 0.00 0.00 90 1011.7
20260506033047 73 147 3.5 7.8 0.00 0.00 0.00 89 1011.3
20260506031557 73 158 6.1 8.7 0.00 0.00 0.00 89 1011.0
20260506030048 74 141 4.3 7.0 0.00 0.00 0.00 89 1011.1
20260506024543 74 126 3.5 6.1 0.00 0.00 0.00 87 1011.1
20260506023047 75 146 2.6 4.3 0.00 0.00 0.00 86 1010.8
20260506021543 76 153 3.5 5.2 0.00 0.00 0.00 85 1010.2
20260506020049 77 157 2.6 7.8 0.00 0.00 0.00 83 1010.2
20260506014549 78 166 3.5 7.8 0.00 0.00 0.00 82 1009.8
20260506013055 78 164 2.6 7.0 0.00 0.00 0.00 80 1009.6
20260506011556 79 159 3.5 7.0 0.00 0.00 0.00 79 1009.6
20260506010056 80 157 3.5 6.1 0.00 0.00 0.00 77 1009.3
20260506004553 81 177 3.5 8.7 0.00 0.00 0.00 75 1009.3
20260506003049 82 189 2.6 6.1 0.00 0.00 0.00 73 1009.2
20260506001549 83 159 1.7 9.6 0.00 0.00 0.00 71 1009.2
20260506000050 83 161 5.2 9.6 0.00 0.00 0.00 70 1009.3
20260505234559 84 176 3.5 8.7 0.00 0.00 0.00 68 1009.2
20260505233103 84 198 3.5 7.8 0.00 0.00 0.00 70 1009.3
20260505231555 86 184 1.7 7.8 0.00 0.00 0.00 66 1009.3
20260505230047 86 0 0.9 7.0 0.00 0.00 0.00 66 1009.2
20260505224549 87 178 1.7 7.0 0.00 0.00 0.00 64 1009.1
20260505223051 86 178 1.7 8.7 0.00 0.00 0.00 67 1009.3